Weather History for KBHB - January, 2014

Change the Weather History Date:

Wednesday, January 15, 2014

  Actual Average Record
Temperature  
Mean Temperature 40 °F -  
Max Temperature 46 °F 30 °F 50 °F (2006)
Min Temperature 33 °F 15 °F -14 °F (1965)
Degree Days  
Heating Degree Days 26    
Moisture  
Dew Point 37 °F    
Average Humidity 94    
Maximum Humidity 100    
Minimum Humidity 76    
Precipitation  
Precipitation 0.04 in - - ()
Sea Level Pressure  
Sea Level Pressure 29.90 in    
Wind  
Wind Speed 4 mph (SSW)    
Max Wind Speed 10 mph    
Max Gust Speed 16 mph    
Visibility 8 miles    
Events      
Averages and records for this station are not official NWS values.
T = Trace of Precipitation, MM = Missing Value Source: NWS Daily Summary

Daily Weather History Graph

Daily Weather History Graph

Search for Another Location

Airport or City:

Trip Planner

Search our weather history database for the weather conditions in past years. The results will help you decide how hot, cold, wet, or windy it might be!

Date:

Astronomy

Jan. 15, 2014 Rise Set
Actual Time 7:06 AM EST 4:19 PM EST
Civil Twilight 6:33 AM EST 4:52 PM EST
Nautical Twilight 5:58 AM EST 5:28 PM EST
Astronomical Twilight 5:23 AM EST 6:03 PM EST
Moon 4:16 PM EST (1/15) 6:18 AM EST (1/15)
Length of Visible Light 10h 18m
Length of Day
9h 13m
Full, 100% of the Moon is Illuminated
Jan 15
Full
Jan 15
Full
Jan 24
Last Quarter
Jan 30
New
Feb 6
First Quarter

Hourly Weather History & Observations

Time (EST) Temp. Windchill Dew Point Humidity Pressure Visibility Wind Dir Wind Speed Gust Speed Precip Events Conditions
12:15 AM 42.8 °F 38.6 °F 41.0 °F 93% 29.50 in 10.0 mi NNW 6.9 mph - N/A   Overcast
12:35 AM 42.8 °F 40.1 °F 42.8 °F 100% 29.55 in 10.0 mi WNW 4.6 mph - N/A   Overcast
12:55 AM 42.8 °F 38.6 °F 41.0 °F 93% 29.57 in 9.0 mi WNW 6.9 mph - 0.01 in   Mostly Cloudy
1:15 AM 42.8 °F 37.0 °F 42.8 °F 100% 29.60 in 10.0 mi WNW 10.4 mph - N/A   Overcast
1:35 AM 42.8 °F 37.5 °F 42.8 °F 100% 29.64 in 5.0 mi NW 9.2 mph 16.1 mph 0.01 in   Overcast
1:55 AM 42.8 °F 38.0 °F 41.0 °F 93% 29.68 in 9.0 mi NW 8.1 mph - 0.02 in   Overcast
2:15 AM 41.0 °F 36.4 °F 39.2 °F 93% 29.70 in 10.0 mi NW 6.9 mph - N/A   Overcast
2:35 AM 41.0 °F 35.8 °F 39.2 °F 93% 29.71 in 10.0 mi NW 8.1 mph - 0.01 in   Overcast
2:55 AM 39.2 °F 35.0 °F 37.4 °F 93% 29.73 in 10.0 mi NW 5.8 mph - 0.01 in   Overcast
3:15 AM 39.2 °F - 39.2 °F 100% 29.73 in 10.0 mi Calm Calm - N/A   Mostly Cloudy
3:35 AM 39.2 °F - 39.2 °F 100% 29.74 in 10.0 mi Calm Calm - N/A   Partly Cloudy
3:55 AM 37.4 °F 34.9 °F 37.4 °F 100% 29.76 in 10.0 mi West 3.5 mph - N/A   Clear
4:15 AM 37.4 °F - 35.6 °F 93% 29.76 in 9.0 mi Calm Calm - N/A   Clear
4:35 AM 37.4 °F - 35.6 °F 93% 29.79 in 10.0 mi Calm Calm - N/A   Clear
4:55 AM 35.6 °F 32.8 °F 35.6 °F 100% 29.81 in 10.0 mi South 3.5 mph - N/A   Clear
5:15 AM 35.6 °F 30.7 °F 33.8 °F 93% 29.82 in 8.0 mi SSW 5.8 mph - N/A   Clear
5:35 AM 35.6 °F 32.8 °F 35.6 °F 100% 29.83 in 10.0 mi SW 3.5 mph - N/A   Clear
5:55 AM 35.6 °F - 33.8 °F 93% 29.84 in 10.0 mi Calm Calm - N/A   Clear
6:15 AM 35.6 °F - 35.6 °F 100% 29.86 in 10.0 mi Calm Calm - N/A   Clear
6:35 AM 35.6 °F 31.7 °F 33.8 °F 93% 29.89 in 10.0 mi SW 4.6 mph - N/A   Clear
6:55 AM 35.6 °F 30.7 °F 35.6 °F 100% 29.91 in 10.0 mi SSW 5.8 mph - N/A   Clear
7:15 AM 35.6 °F 31.7 °F 35.6 °F 100% 29.92 in 10.0 mi SSW 4.6 mph - N/A   Clear
7:35 AM 35.6 °F 32.8 °F 33.8 °F 93% 29.93 in 10.0 mi South 3.5 mph - N/A   Clear
7:55 AM 33.8 °F - 33.8 °F 100% 29.95 in 10.0 mi Calm Calm - N/A   Clear
8:15 AM 37.4 °F 33.8 °F 37.4 °F 100% 29.97 in 10.0 mi SW 4.6 mph - N/A   Clear
8:35 AM 37.4 °F 34.9 °F 37.4 °F 100% 29.98 in 10.0 mi SSW 3.5 mph - N/A   Clear
8:55 AM 39.2 °F 37.0 °F 39.2 °F 100% 30.00 in 10.0 mi SSW 3.5 mph - N/A   Clear
9:15 AM 39.2 °F 35.0 °F 39.2 °F 100% 30.00 in 10.0 mi SW 5.8 mph - N/A   Clear
9:35 AM 39.2 °F 35.9 °F 39.2 °F 100% 30.01 in 10.0 mi SSW 4.6 mph - N/A   Clear
9:55 AM 39.2 °F 35.0 °F 39.2 °F 100% 30.02 in 10.0 mi South 5.8 mph - N/A   Clear
10:15 AM 41.0 °F 36.4 °F 39.2 °F 93% 30.03 in 10.0 mi South 6.9 mph - N/A   Clear
10:35 AM 42.8 °F 38.6 °F 39.2 °F 87% 30.02 in 10.0 mi South 6.9 mph - N/A   Clear
10:55 AM 42.8 °F 40.1 °F 37.4 °F 81% 30.01 in 10.0 mi SSW 4.6 mph - N/A   Clear
11:15 AM 44.6 °F 42.2 °F 37.4 °F 76% 30.00 in 10.0 mi South 4.6 mph - N/A   Clear
11:35 AM 44.6 °F 42.2 °F 37.4 °F 76% 29.99 in 10.0 mi South 4.6 mph - N/A   Clear
11:55 AM 44.6 °F 42.2 °F 37.4 °F 76% 29.98 in 10.0 mi SSW 4.6 mph - N/A   Clear
12:15 PM 44.6 °F 42.2 °F 39.2 °F 81% 29.97 in 10.0 mi SSW 4.6 mph - N/A   Clear
12:35 PM 44.6 °F 41.4 °F 39.2 °F 81% 29.97 in 10.0 mi ESE 5.8 mph - N/A   Clear
12:55 PM 44.6 °F 40.7 °F 39.2 °F 81% 29.97 in 10.0 mi SSE 6.9 mph - N/A   Clear
1:15 PM 44.6 °F 42.2 °F 37.4 °F 76% 29.97 in 10.0 mi ESE 4.6 mph - N/A   Clear
1:35 PM 46.4 °F 42.9 °F 39.2 °F 76% 29.98 in 10.0 mi South 6.9 mph - N/A   Clear
1:55 PM 46.4 °F 41.5 °F 39.2 °F 76% 29.98 in 10.0 mi South 10.4 mph - N/A   Clear
2:15 PM 44.6 °F 39.7 °F 37.4 °F 76% 29.99 in 10.0 mi SSW 9.2 mph - N/A   Clear
2:35 PM 42.8 °F 37.5 °F 37.4 °F 81% 29.99 in 10.0 mi SSW 9.2 mph - N/A   Clear
2:55 PM 42.8 °F 38.6 °F 37.4 °F 81% 29.99 in 10.0 mi SSW 6.9 mph - N/A   Clear
3:15 PM 41.0 °F 37.1 °F 37.4 °F 87% 29.99 in 10.0 mi South 5.8 mph - N/A   Clear
3:35 PM 41.0 °F 38.0 °F 37.4 °F 87% 29.99 in 10.0 mi South 4.6 mph - N/A   Clear
3:55 PM 41.0 °F 38.0 °F 37.4 °F 87% 29.99 in 10.0 mi SSE 4.6 mph - N/A   Clear
4:15 PM 39.2 °F - 37.4 °F 93% 29.98 in 10.0 mi Calm Calm - N/A   Clear
4:35 PM 37.4 °F - 37.4 °F 100% 29.98 in 10.0 mi Calm Calm - N/A   Clear
4:55 PM 37.4 °F - 37.4 °F 100% 29.98 in 10.0 mi Calm Calm - N/A   Clear
5:15 PM 37.4 °F - 35.6 °F 93% 29.98 in 10.0 mi Calm Calm - N/A   Scattered Clouds
5:35 PM 37.4 °F - 37.4 °F 100% 29.98 in 10.0 mi Calm Calm - N/A   Overcast
5:55 PM 37.4 °F - 35.6 °F 93% 29.99 in 9.0 mi Calm Calm - N/A   Overcast
6:15 PM 37.4 °F - 37.4 °F 100% 29.99 in 8.0 mi Calm Calm - N/A   Mostly Cloudy
6:35 PM 37.4 °F 33.8 °F 37.4 °F 100% 29.99 in 1.0 mi ESE 4.6 mph - N/A   Overcast
6:55 PM 37.4 °F - 35.6 °F 93% 29.99 in 7.0 mi Calm Calm - N/A   Partly Cloudy
7:15 PM 35.6 °F - 35.6 °F 100% 29.98 in 1.5 mi Calm Calm - N/A   Clear
7:35 PM 35.6 °F 32.8 °F 35.6 °F 100% 29.98 in 0.8 mi SSE 3.5 mph - N/A   Overcast
7:55 PM 37.4 °F - 37.4 °F 100% 29.98 in 2.5 mi Calm Calm - N/A   Overcast
8:15 PM 37.4 °F 34.9 °F 37.4 °F 100% 29.98 in 10.0 mi SE 3.5 mph - N/A   Overcast
8:35 PM 37.4 °F - 37.4 °F 100% 29.97 in 7.0 mi Calm Calm - N/A   Overcast
8:55 PM 35.6 °F - 35.6 °F 100% 29.97 in 3.0 mi Calm Calm - N/A   Mostly Cloudy
9:15 PM 35.6 °F - 35.6 °F 100% 29.96 in 3.0 mi Calm Calm - N/A   Mostly Cloudy
9:35 PM 35.6 °F - 35.6 °F 100% 29.96 in 4.0 mi Calm Calm - N/A   Mostly Cloudy
9:55 PM 37.4 °F - 35.6 °F 93% 29.95 in 2.5 mi Calm Calm - N/A   Scattered Clouds
10:15 PM 35.6 °F - 35.6 °F 100% 29.93 in 3.0 mi Calm Calm - N/A   Clear
10:35 PM 35.6 °F - 35.6 °F 100% 29.93 in 1.2 mi Calm Calm - N/A   Mostly Cloudy
10:55 PM 37.4 °F - 37.4 °F 100% 29.92 in 0.8 mi Calm Calm - N/A   Overcast
11:15 PM 37.4 °F - 37.4 °F 100% 29.92 in 0.5 mi Calm Calm - N/A   Overcast
11:35 PM 37.4 °F - 37.4 °F 100% 29.91 in 0.5 mi Calm Calm - N/A   Overcast
11:55 PM 37.4 °F - 37.4 °F 100% 29.92 in 0.5 mi Calm Calm - N/A   Overcast